SCP
-0 -0 0 0 0 0 0 0 0 0 0 0 0 0 0 0 0 -0 -0 -0 -0 -0 0 -0 -0 -0 -0 -0 0 -0 0 -0 -0 0 0 0 0 0 -0 -0 -0 -0 0
-0 -0 -0 0 0 0 0 0 0 0 0 0 0 0 0 0 0 0 -0 -0 -0 -0 -0 0 0 -0 -0 -0 -0 -0 -0 -0 -0 -0 0 0 -0 -0 -0 0 -0 0 -0
0 0 0 0 0 0 0 0 0 0 0 0 0 0 0 0 0 0 -0 -0 -0 -0 -0 0 0 -0 0 -0 -0 -0 -0 -0 -0 -0 -0 0 -0 -0 -0 0 0 0 0
0 0 0 0 0 0 0 0 0 0 0 0 0 0 0 0 -0 0 -0 -0 -0 -0 -0 0 0 -0 -0 0 -0 0 0 0 -0 -0 -0 -0 -0 -0 -0 -0 -0 0 -0
-0 -0 -0 0 0 0 0 0 0 0 0 0 0 0 0 0 0 0 0 -0 -0 -0 -0 -0 0 0 0 0 0 0 0 0 -0 -0 -0 -0 -0 -0 -0 -0 0 0 0
-0 -0 0 0 0 0 0 0 0 0 0 0 0 0 0 0 -0 -0 -0 -0 -0 0 -0 -0 -0 -0 -0 -0 -0 -0 -0 -0 0 0 0 0 -0 0 -0 -0 0 0 -0
-0 -0 0 0 0 0 0 0 0 0 0 0 0 0 -0 -0 -0 -0 -0 0 -0 -0 -0 0 0 0 0 0 0 0 0 0 -0 -0 -0 -0 0 0 0 0 -0 -0 -0
-0 -0 0 0 0 0 0 0 0 0 0 0 0 0 0 -0 -0 -0 -0 0 -0 -0 0 0 0 0 0 0 0 0 0 0 0 0 0 0 0 0 0 0 0 0 0
-0 0 0 0 0 0 0 0 0 0 0 0 0 0 0 0 0 0 0 0 -0 -0 -0 -0 -0 0 0 0 0 0 0 0 0 0 0 0 0 0 0 0 0 0 0
-0 0 0 0 0 0 0 0 0 0 0 0 0 0 0 0 0 0 0 0 0 -0 -0 -0 -0 0 0 0 0 0 0 0 0 0 0 0 0 0 0 0 0 0 0
0 0 0 0 0 0 0 0 0 0 0 0 0 0 0 0 0 0 0 0 0 0 0 0 0 0 0 0 0 0 -0 0 0 0 0 0 0 0 0 0 0 0 0
0 -0 -0 -0 0 0 0 0 0 0 0 0 0 0 0 0 0 0 0 0 0 0 0 0 0 0 0 0 0 -0 -0 -0 0 0 0 0 0 0 0 0 0 0 0
-0 -0 -0 -0 -0 0 0 0 0 0 0 0 0 0 0 0 0 0 0 0 0 0 0 0 0 0 0 0 0 0 0 0 0 0 0 0 0 0 0 0 0 0 0
0 -0 -0 -0 0 0 0 0 0 0 0 0 0 0 0 0 0 0 0 0 0 0 0 0 0 0 0 0 0 0 0 0 0 0 0 0 0 0 0 0 0 0 0
0 0 -0 -0 0 0 0 0 0 0 0 0 0 0 0 0 0 0 0 0 0 0 0 0 0 0 0 0 0 0 0 0 0 0 0 0 0 0 0 0 0 0 0
0 0 -0 -0 0 0 0 0 0 0 0 0 0 0 0 0 0 0 0 0 0 0 0 0 0 0 0 0 0 0 0 0 0 0 0 0 0 0 0 0 0 0 0
0 0 -0 -0 0 0 0 0 0 0 0 0 0 0 0 0 0 0 0 0 0 0 0 0 0 0 0 0 0 0 0 0 0 0 0 0 0 0 0 0 0 0 0
0 0 0 0 0 0 0 0 0 0 0 0 0 0 0 0 0 0 0 0 0 0 0 0 0 0 0 0 0 0 0 0 0 0 0 0 0 0 0 0 0 0 0
0 0 0 0 0 0 0 0 0 0 0 0 0 0 0 0 0 0 0 0 0 0 0 0 0 0 0 0 0 0 0 0 0 0 0 0 0 0 0 0 0 0 0
0 0 0 0 0 0 0 0 0 0 0 0 0 0 0 0 0 0 0 0 0 0 0 0 0 0 0 0 0 0 0 0 0 0 0 0 0 0 0 0 0 0 0
0 0 0 0 0 0 0 0 0 0 0 0 0 0 0 0 0 0 0 0 0 0 0 0 0 0 0 0 0 0 0 0 0 0 0 0 0 0 0 0 0 0 0
0 0 0 0 0 0 0 0 0 0 0 0 0 0 0 0 0 0 0 0 0 0 0 0 0 0 0 0 0 0 0 0 0 0 0 0 0 0 0 0 0 0 0
1 0 0 1 0 0 0 0 0 0 0 0 0 0 0 0 0 0 0 0 0 0 0 0 0 0 0 0 0 0 0 0 0 0 0 0 0 0 0 0 0 0 0
0 1 1 1 1 1 0 0 0 1 1 0 0 0 0 0 0 0 0 0 0 0 0 0 0 0 0 0 0 0 0 0 0 0 0 0 0 0 0 0 0 0 0
1 1 1 1 1 1 0 0 0 1 1 0 0 0 0 0 0 0 0 0 0 0 0 0 0 0 0 0 0 0 0 0 0 0 0 0 0 0 0 0 0 0 0
2 2 1 1 1 1 0 0 0 1 1 1 0 0 0 0 0 0 0 0 0 0 0 0 0 0 0 0 0 0 0 0 0 0 0 0 0 0 0 0 0 0 0
Wind_Speed_500mb
10 8 12 10 15 13 12 4 5 9 5 9 7 7 16 7 14 16 7 5 4 5 3 12 15 12 16 17 17 14 14 14 15 13 11 12 9 9 9 8 8 7 6
12 8 9 8 9 7 7 7 3 11 10 9 9 4 7 9 9 13 2 2 3 5 5 10 11 15 13 16 16 15 15 12 15 17 14 14 14 12 12 11 10 10 10
12 9 9 8 11 12 14 14 8 9 10 5 5 4 2 7 8 15 9 6 7 4 5 2 11 14 10 12 17 16 15 15 14 14 16 16 17 16 14 13 13 11 12
17 16 12 12 14 13 12 14 11 13 9 7 8 3 5 5 3 2 8 6 5 7 10 7 4 9 11 13 17 17 18 18 16 15 15 16 17 17 16 16 17 16 16
27 23 15 11 13 16 18 12 12 11 8 11 14 10 6 2 3 6 8 4 8 4 7 11 10 7 3 7 11 18 19 19 21 23 22 20 17 16 16 16 17 17 17
28 23 19 17 14 14 11 10 13 11 11 8 6 13 7 3 3 7 8 10 13 6 4 8 5 10 10 7 8 9 12 19 21 21 23 24 25 23 23 23 23 23 23
29 25 22 19 19 18 17 17 14 9 11 7 13 13 7 5 3 5 7 2 7 2 7 12 15 13 8 4 7 7 9 11 14 17 17 21 24 23 26 25 25 26 26
30 25 25 22 22 23 22 21 12 8 7 15 16 17 12 10 11 8 3 3 6 13 11 8 4 2 2 3 6 7 6 8 10 13 14 15 17 19 23 24 25 24 25
34 29 29 26 25 25 22 22 20 13 10 21 20 13 10 13 17 18 14 7 5 10 15 22 20 11 9 6 5 5 6 5 6 7 9 12 14 16 18 21 23 23 24
40 37 33 28 28 26 24 20 25 19 16 24 26 22 23 13 18 15 25 19 13 5 4 6 12 13 13 10 12 15 10 7 7 8 9 9 11 13 15 16 18 20 20
54 45 40 37 32 29 26 22 24 22 20 22 27 22 21 20 20 19 18 27 24 18 9 5 3 1 4 8 8 13 16 17 17 18 16 12 10 10 11 12 13 13 15
57 51 45 42 39 37 31 25 24 24 20 21 28 29 25 20 19 22 22 19 25 22 19 17 12 11 10 5 1 4 7 11 14 14 18 16 15 13 11 13 13 14 16
59 57 50 47 43 39 34 30 27 27 22 18 23 27 27 25 18 13 15 16 19 20 19 20 20 20 17 16 11 8 8 10 14 14 15 15 14 16 15 14 14 15 15
59 54 51 49 49 41 34 33 30 29 25 23 21 26 25 25 22 17 15 16 14 17 18 15 19 14 12 13 12 14 14 14 18 19 19 19 18 17 15 16 16 17 19
57 59 53 51 48 42 37 34 33 32 29 25 23 27 30 30 28 26 24 21 22 22 19 14 10 10 8 8 7 9 12 14 16 17 16 18 21 23 23 22 21 23 25
64 63 61 57 51 44 42 40 39 35 33 30 28 29 31 31 31 31 29 29 27 26 27 18 12 14 14 14 14 16 18 19 23 26 27 26 27 28 30 31 33 34 34
67 66 65 63 59 52 47 46 41 39 38 34 35 33 32 31 33 32 34 32 28 27 31 27 27 28 29 23 19 22 24 26 30 31 37 39 36 36 37 38 37 38 42
69 68 67 71 66 56 52 50 46 44 42 38 38 40 39 37 35 34 33 33 35 31 28 30 32 32 28 26 30 29 29 31 39 45 45 38 36 40 40 42 48 48 49
72 73 69 73 71 64 58 54 48 48 46 43 38 41 43 43 43 38 33 32 33 34 34 37 37 36 36 36 36 35 34 38 44 50 39 28 32 39 46 47 46 46 48
76 78 78 76 71 64 62 58 55 53 53 50 46 41 45 48 46 42 37 31 30 32 35 39 38 37 37 37 41 43 45 46 49 42 34 33 35 35 34 40 44 43 43
80 78 85 83 81 74 67 66 62 59 57 54 54 57 50 45 47 46 43 35 32 32 30 32 36 39 40 39 40 44 45 49 51 44 40 38 37 39 43 41 39 37 36
86 83 86 90 89 85 80 71 64 62 58 60 62 60 60 48 44 49 49 41 39 37 34 32 37 39 39 38 41 39 44 47 50 48 43 43 46 48 44 42 41 43 41
88 89 89 89 94 92 86 76 70 68 63 64 64 59 63 56 37 52 48 44 41 40 44 36 37 38 38 38 40 45 46 45 42 41 45 51 48 48 41 39 39 40 45
93 94 92 90 90 91 84 77 74 72 72 69 63 60 56 47 43 41 43 42 38 40 39 38 37 37 39 42 41 41 44 45 45 45 47 50 46 40 37 38 42 47 46
98 98 97 91 86 85 82 76 75 77 76 68 63 51 40 41 43 39 41 38 39 39 37 37 38 37 40 38 41 40 38 41 49 48 39 37 36 41 47 50 45 37 39
103 99 98 93 85 82 82 79 74 79 76 68 66 54 44 45 43 42 40 37 40 38 40 35 38 38 39 33 31 35 38 35 30 29 27 33 43 44 36 41 34 43 38
Wind_Direction_500mb
149 133 138 161 160 144 130 193 293 307 289 289 294 5 18 342 331 340 343 245 232 6 297 225 202 197 210 210 209 204 208 215 213 225 222 228 223 219 217 220 232 248 240
170 162 181 208 200 206 220 240 314 320 312 310 167 45 13 345 355 5 74 36 295 356 342 217 207 209 208 210 220 218 224 228 232 232 236 236 244 243 237 235 245 262 268
200 204 227 248 241 243 243 244 303 334 330 236 150 16 314 12 24 24 87 39 5 339 350 211 197 202 223 219 221 222 223 233 237 236 237 245 250 251 252 248 248 261 280
228 230 241 262 254 255 246 254 296 318 316 232 264 288 264 351 52 47 11 26 25 41 28 21 63 203 221 228 229 231 233 235 244 251 249 253 258 253 260 262 264 270 277
231 236 241 255 261 267 263 248 294 300 305 289 298 211 228 18 60 37 97 52 32 42 23 21 30 20 344 249 244 236 237 240 241 248 254 255 254 255 257 263 266 270 273
231 235 248 258 271 273 264 275 297 289 306 308 144 159 146 148 8 40 141 86 62 78 356 313 324 352 331 288 281 277 256 250 252 254 255 256 257 259 260 262 267 270 271
231 231 242 258 270 278 267 264 278 284 316 196 179 173 182 179 174 92 94 109 2 278 236 254 273 309 330 347 349 316 296 283 270 266 267 261 262 261 263 268 271 269 268
229 235 248 263 268 279 263 255 263 264 306 186 203 208 213 208 192 183 142 66 71 62 71 57 48 284 268 281 323 332 321 312 300 279 271 270 272 274 272 271 273 274 274
237 239 244 255 264 278 270 258 265 266 297 206 203 214 204 218 222 215 203 190 113 88 78 71 64 71 78 64 28 339 324 324 317 309 292 282 279 274 281 282 282 283 282
240 243 240 245 257 271 270 262 261 263 277 226 223 233 224 223 203 216 226 214 206 188 93 73 76 73 76 64 51 39 32 19 8 358 341 321 309 304 298 293 290 289 286
245 243 239 242 247 262 262 257 260 262 262 231 230 236 234 234 231 228 221 222 218 217 219 244 286 306 77 75 57 47 54 59 56 49 41 27 360 328 311 300 299 299 295
235 236 234 238 247 255 258 252 260 254 252 240 232 237 248 254 256 247 252 255 238 235 240 257 269 266 261 258 295 30 33 21 15 12 14 7 7 357 333 311 300 296 296
230 230 230 237 243 247 252 244 247 249 251 248 241 241 246 251 266 263 255 252 257 241 256 265 268 264 263 246 249 271 300 313 329 329 330 336 339 347 340 330 319 309 306
230 229 232 237 240 242 245 237 236 243 248 246 247 236 243 245 249 257 264 256 238 230 254 272 282 249 264 249 240 262 285 297 309 306 296 305 301 306 312 309 306 307 302
233 230 232 234 235 234 237 237 236 239 248 248 253 245 244 247 253 255 252 245 253 262 268 293 239 242 283 275 255 267 307 283 292 304 298 290 290 288 284 282 287 289 291
232 232 231 231 230 230 235 240 238 237 242 241 244 247 249 250 253 254 251 249 258 260 266 278 267 256 276 294 299 310 314 299 297 297 297 293 295 293 287 286 283 277 275
229 231 229 228 229 232 234 239 239 236 240 244 244 246 247 250 248 249 250 249 252 256 262 267 273 284 285 277 287 303 303 311 312 308 302 291 285 289 291 291 289 281 272
232 229 229 227 229 230 230 235 237 236 238 243 250 249 248 244 249 252 253 251 253 253 255 269 278 283 286 282 287 289 291 299 305 308 306 289 284 285 285 288 292 285 277
235 229 229 229 229 229 228 228 235 239 242 245 250 251 253 249 247 249 255 252 259 256 261 267 277 274 276 282 283 289 293 297 305 312 310 289 278 284 290 292 292 291 288
234 231 227 227 227 228 226 226 232 238 241 245 250 248 248 248 250 249 250 253 256 257 264 268 275 275 276 280 286 291 290 297 307 310 304 299 297 295 292 295 298 298 294
234 232 229 229 231 231 229 229 232 238 244 248 251 252 248 246 248 250 251 254 255 258 267 272 269 273 279 285 290 293 293 300 308 304 302 302 297 296 298 304 306 308 305
235 235 232 230 233 234 232 233 236 240 245 253 258 258 256 253 244 248 248 249 252 255 259 265 266 267 276 281 288 285 288 301 299 300 302 299 301 300 299 298 297 301 303
234 235 236 234 234 237 238 238 241 244 249 254 259 261 260 251 254 246 247 249 250 250 254 265 268 270 275 281 278 281 289 293 292 295 298 298 298 296 298 293 295 295 299
232 233 234 235 236 238 240 240 242 243 245 251 255 255 251 246 247 244 242 245 253 257 254 261 265 270 271 278 282 284 289 291 292 298 300 298 304 302 297 296 297 300 300
232 233 235 235 236 238 237 236 237 239 241 246 249 265 243 238 231 231 239 244 251 255 256 265 264 266 278 283 285 285 290 290 293 299 302 302 306 307 306 305 311 316 316
233 235 238 237 236 239 237 233 232 234 238 240 243 247 223 229 221 217 232 239 252 254 256 253 259 268 276 277 285 290 291 293 298 306 312 308 306 312 314 314 312 320 323
Wind_Speed_850mb
10 8 12 10 15 13 12 4 5 9 5 9 7 7 16 7 14 16 7 5 4 5 3 12 15 12 16 17 17 14 14 14 15 13 11 12 9 9 9 8 8 7 6
12 8 9 8 9 7 7 7 3 11 10 9 9 4 7 9 9 13 2 2 3 5 5 10 11 15 13 16 16 15 15 12 15 17 14 14 14 12 12 11 10 10 10
12 9 9 8 11 12 14 14 8 9 10 5 5 4 2 7 8 15 9 6 7 4 5 2 11 14 10 12 17 16 15 15 14 14 16 16 17 16 14 13 13 11 12
17 16 12 12 14 13 12 14 11 13 9 7 8 3 5 5 3 2 8 6 5 7 10 7 4 9 11 13 17 17 18 18 16 15 15 16 17 17 16 16 17 16 16
27 23 15 11 13 16 18 12 12 11 8 11 14 10 6 2 3 6 8 4 8 4 7 11 10 7 3 7 11 18 19 19 21 23 22 20 17 16 16 16 17 17 17
28 23 19 17 14 14 11 10 13 11 11 8 6 13 7 3 3 7 8 10 13 6 4 8 5 10 10 7 8 9 12 19 21 21 23 24 25 23 23 23 23 23 23
29 25 22 19 19 18 17 17 14 9 11 7 13 13 7 5 3 5 7 2 7 2 7 12 15 13 8 4 7 7 9 11 14 17 17 21 24 23 26 25 25 26 26
30 25 25 22 22 23 22 21 12 8 7 15 16 17 12 10 11 8 3 3 6 13 11 8 4 2 2 3 6 7 6 8 10 13 14 15 17 19 23 24 25 24 25
34 29 29 26 25 25 22 22 20 13 10 21 20 13 10 13 17 18 14 7 5 10 15 22 20 11 9 6 5 5 6 5 6 7 9 12 14 16 18 21 23 23 24
40 37 33 28 28 26 24 20 25 19 16 24 26 22 23 13 18 15 25 19 13 5 4 6 12 13 13 10 12 15 10 7 7 8 9 9 11 13 15 16 18 20 20
54 45 40 37 32 29 26 22 24 22 20 22 27 22 21 20 20 19 18 27 24 18 9 5 3 1 4 8 8 13 16 17 17 18 16 12 10 10 11 12 13 13 15
57 51 45 42 39 37 31 25 24 24 20 21 28 29 25 20 19 22 22 19 25 22 19 17 12 11 10 5 1 4 7 11 14 14 18 16 15 13 11 13 13 14 16
59 57 50 47 43 39 34 30 27 27 22 18 23 27 27 25 18 13 15 16 19 20 19 20 20 20 17 16 11 8 8 10 14 14 15 15 14 16 15 14 14 15 15
59 54 51 49 49 41 34 33 30 29 25 23 21 26 25 25 22 17 15 16 14 17 18 15 19 14 12 13 12 14 14 14 18 19 19 19 18 17 15 16 16 17 19
57 59 53 51 48 42 37 34 33 32 29 25 23 27 30 30 28 26 24 21 22 22 19 14 10 10 8 8 7 9 12 14 16 17 16 18 21 23 23 22 21 23 25
64 63 61 57 51 44 42 40 39 35 33 30 28 29 31 31 31 31 29 29 27 26 27 18 12 14 14 14 14 16 18 19 23 26 27 26 27 28 30 31 33 34 34
67 66 65 63 59 52 47 46 41 39 38 34 35 33 32 31 33 32 34 32 28 27 31 27 27 28 29 23 19 22 24 26 30 31 37 39 36 36 37 38 37 38 42
69 68 67 71 66 56 52 50 46 44 42 38 38 40 39 37 35 34 33 33 35 31 28 30 32 32 28 26 30 29 29 31 39 45 45 38 36 40 40 42 48 48 49
72 73 69 73 71 64 58 54 48 48 46 43 38 41 43 43 43 38 33 32 33 34 34 37 37 36 36 36 36 35 34 38 44 50 39 28 32 39 46 47 46 46 48
76 78 78 76 71 64 62 58 55 53 53 50 46 41 45 48 46 42 37 31 30 32 35 39 38 37 37 37 41 43 45 46 49 42 34 33 35 35 34 40 44 43 43
80 78 85 83 81 74 67 66 62 59 57 54 54 57 50 45 47 46 43 35 32 32 30 32 36 39 40 39 40 44 45 49 51 44 40 38 37 39 43 41 39 37 36
86 83 86 90 89 85 80 71 64 62 58 60 62 60 60 48 44 49 49 41 39 37 34 32 37 39 39 38 41 39 44 47 50 48 43 43 46 48 44 42 41 43 41
88 89 89 89 94 92 86 76 70 68 63 64 64 59 63 56 37 52 48 44 41 40 44 36 37 38 38 38 40 45 46 45 42 41 45 51 48 48 41 39 39 40 45
93 94 92 90 90 91 84 77 74 72 72 69 63 60 56 47 43 41 43 42 38 40 39 38 37 37 39 42 41 41 44 45 45 45 47 50 46 40 37 38 42 47 46
98 98 97 91 86 85 82 76 75 77 76 68 63 51 40 41 43 39 41 38 39 39 37 37 38 37 40 38 41 40 38 41 49 48 39 37 36 41 47 50 45 37 39
103 99 98 93 85 82 82 79 74 79 76 68 66 54 44 45 43 42 40 37 40 38 40 35 38 38 39 33 31 35 38 35 30 29 27 33 43 44 36 41 34 43 38
Wind_Direction_850mb
149 133 138 161 160 144 130 193 293 307 289 289 294 5 18 342 331 340 343 245 232 6 297 225 202 197 210 210 209 204 208 215 213 225 222 228 223 219 217 220 232 248 240
170 162 181 208 200 206 220 240 314 320 312 310 167 45 13 345 355 5 74 36 295 356 342 217 207 209 208 210 220 218 224 228 232 232 236 236 244 243 237 235 245 262 268
200 204 227 248 241 243 243 244 303 334 330 236 150 16 314 12 24 24 87 39 5 339 350 211 197 202 223 219 221 222 223 233 237 236 237 245 250 251 252 248 248 261 280
228 230 241 262 254 255 246 254 296 318 316 232 264 288 264 351 52 47 11 26 25 41 28 21 63 203 221 228 229 231 233 235 244 251 249 253 258 253 260 262 264 270 277
231 236 241 255 261 267 263 248 294 300 305 289 298 211 228 18 60 37 97 52 32 42 23 21 30 20 344 249 244 236 237 240 241 248 254 255 254 255 257 263 266 270 273
231 235 248 258 271 273 264 275 297 289 306 308 144 159 146 148 8 40 141 86 62 78 356 313 324 352 331 288 281 277 256 250 252 254 255 256 257 259 260 262 267 270 271
231 231 242 258 270 278 267 264 278 284 316 196 179 173 182 179 174 92 94 109 2 278 236 254 273 309 330 347 349 316 296 283 270 266 267 261 262 261 263 268 271 269 268
229 235 248 263 268 279 263 255 263 264 306 186 203 208 213 208 192 183 142 66 71 62 71 57 48 284 268 281 323 332 321 312 300 279 271 270 272 274 272 271 273 274 274
237 239 244 255 264 278 270 258 265 266 297 206 203 214 204 218 222 215 203 190 113 88 78 71 64 71 78 64 28 339 324 324 317 309 292 282 279 274 281 282 282 283 282
240 243 240 245 257 271 270 262 261 263 277 226 223 233 224 223 203 216 226 214 206 188 93 73 76 73 76 64 51 39 32 19 8 358 341 321 309 304 298 293 290 289 286
245 243 239 242 247 262 262 257 260 262 262 231 230 236 234 234 231 228 221 222 218 217 219 244 286 306 77 75 57 47 54 59 56 49 41 27 360 328 311 300 299 299 295
235 236 234 238 247 255 258 252 260 254 252 240 232 237 248 254 256 247 252 255 238 235 240 257 269 266 261 258 295 30 33 21 15 12 14 7 7 357 333 311 300 296 296
230 230 230 237 243 247 252 244 247 249 251 248 241 241 246 251 266 263 255 252 257 241 256 265 268 264 263 246 249 271 300 313 329 329 330 336 339 347 340 330 319 309 306
230 229 232 237 240 242 245 237 236 243 248 246 247 236 243 245 249 257 264 256 238 230 254 272 282 249 264 249 240 262 285 297 309 306 296 305 301 306 312 309 306 307 302
233 230 232 234 235 234 237 237 236 239 248 248 253 245 244 247 253 255 252 245 253 262 268 293 239 242 283 275 255 267 307 283 292 304 298 290 290 288 284 282 287 289 291
232 232 231 231 230 230 235 240 238 237 242 241 244 247 249 250 253 254 251 249 258 260 266 278 267 256 276 294 299 310 314 299 297 297 297 293 295 293 287 286 283 277 275
229 231 229 228 229 232 234 239 239 236 240 244 244 246 247 250 248 249 250 249 252 256 262 267 273 284 285 277 287 303 303 311 312 308 302 291 285 289 291 291 289 281 272
232 229 229 227 229 230 230 235 237 236 238 243 250 249 248 244 249 252 253 251 253 253 255 269 278 283 286 282 287 289 291 299 305 308 306 289 284 285 285 288 292 285 277
235 229 229 229 229 229 228 228 235 239 242 245 250 251 253 249 247 249 255 252 259 256 261 267 277 274 276 282 283 289 293 297 305 312 310 289 278 284 290 292 292 291 288
234 231 227 227 227 228 226 226 232 238 241 245 250 248 248 248 250 249 250 253 256 257 264 268 275 275 276 280 286 291 290 297 307 310 304 299 297 295 292 295 298 298 294
234 232 229 229 231 231 229 229 232 238 244 248 251 252 248 246 248 250 251 254 255 258 267 272 269 273 279 285 290 293 293 300 308 304 302 302 297 296 298 304 306 308 305
235 235 232 230 233 234 232 233 236 240 245 253 258 258 256 253 244 248 248 249 252 255 259 265 266 267 276 281 288 285 288 301 299 300 302 299 301 300 299 298 297 301 303
234 235 236 234 234 237 238 238 241 244 249 254 259 261 260 251 254 246 247 249 250 250 254 265 268 270 275 281 278 281 289 293 292 295 298 298 298 296 298 293 295 295 299
232 233 234 235 236 238 240 240 242 243 245 251 255 255 251 246 247 244 242 245 253 257 254 261 265 270 271 278 282 284 289 291 292 298 300 298 304 302 297 296 297 300 300
232 233 235 235 236 238 237 236 237 239 241 246 249 265 243 238 231 231 239 244 251 255 256 265 264 266 278 283 285 285 290 290 293 299 302 302 306 307 306 305 311 316 316
233 235 238 237 236 239 237 233 232 234 238 240 243 247 223 229 221 217 232 239 252 254 256 253 259 268 276 277 285 290 291 293 298 306 312 308 306 312 314 314 312 320 323